EW1620 Weather Reports


Display with metric or nautical units.
time (UTC)temp
F
wind
direction
speed
MPH
gust
MPH
rain 1hr
in
rain 24hr
in
rain mn
in
humidity
%
barometer
mb
20260831042046 67 195 1.0 4.0 0.00 0.00 0.00 53 1028.5
20260831041556 67 156 1.0 4.0 0.00 0.00 0.00 54 1028.5
20260831041045 66 59 0.0 4.0 0.00 0.00 0.00 53 1028.6
20260831040545 66 59 1.0 4.0 0.00 0.00 0.00 54 1028.7
20260831040042 66 110 0.0 4.0 0.00 0.00 0.00 55 1028.8
20260831035543 66 208 1.0 4.0 0.00 0.00 0.00 56 1028.8
20260831035040 66 140 1.0 3.0 0.00 0.00 0.00 56 1029.0
20260831034542 66 61 1.0 3.0 0.00 0.00 0.00 56 1029.1
20260831034038 66 82 1.0 3.0 0.00 0.00 0.00 57 1029.2
20260831033539 65 63 1.0 4.0 0.00 0.00 0.00 56 1029.3
20260831033036 65 214 1.0 7.0 0.00 0.00 0.00 58 1029.4
20260831032539 65 196 1.0 7.0 0.00 0.00 0.00 58 1029.4
20260831032039 64 194 1.0 3.0 0.00 0.00 0.00 60 1029.5
20260831031546 64 178 0.0 5.0 0.00 0.00 0.00 60 1029.6
20260831031036 64 178 1.0 5.0 0.00 0.00 0.00 60 1029.7
20260831030534 64 133 2.0 4.0 0.00 0.00 0.00 60 1029.8
20260831030034 63 103 0.0 4.0 0.00 0.00 0.00 61 1029.8
20260831025531 63 90 1.0 4.0 0.00 0.00 0.00 62 1029.9
20260831025030 63 163 1.0 4.0 0.00 0.00 0.00 61 1030.0
20260831024531 62 82 0.0 4.0 0.00 0.00 0.00 62 1030.1
20260831024028 62 125 2.0 5.0 0.00 0.00 0.00 63 1030.2
20260831023530 62 78 3.0 5.0 0.00 0.00 0.00 65 1030.3
20260831023026 62 134 1.0 4.0 0.00 0.00 0.00 66 1030.5
20260831022524 62 134 1.0 4.0 0.00 0.00 0.00 66 1030.5
20260831022023 62 67 1.0 6.0 0.00 0.00 0.00 66 1030.6
20260831021522 62 147 2.0 6.0 0.00 0.00 0.00 66 1030.7
20260831021021 61 129 1.0 4.0 0.00 0.00 0.00 67 1030.8
20260831020522 61 156 2.0 5.0 0.00 0.00 0.00 67 1030.9
20260831020019 61 163 0.0 4.0 0.00 0.00 0.00 66 1030.9
20260831015523 61 149 1.0 6.0 0.00 0.00 0.00 67 1031.1
20260831015016 61 170 2.0 6.0 0.00 0.00 0.00 68 1031.2
20260831014515 61 196 3.0 5.0 0.00 0.00 0.00 68 1031.3
20260831014014 60 148 2.0 4.0 0.00 0.00 0.00 68 1031.4
20260831013513 60 113 2.0 4.0 0.00 0.00 0.00 68 1031.4
20260831013028 60 163 1.0 4.0 0.00 0.00 0.00 68 1031.5
20260831012518 60 203 2.0 4.0 0.00 0.00 0.00 69 1031.5
20260831012017 59 191 2.0 5.0 0.00 0.00 0.00 70 1031.6
20260831011519 59 136 2.0 5.0 0.00 0.00 0.00 72 1031.6
20260831011013 59 181 1.0 5.0 0.00 0.00 0.00 71 1031.6
20260831010512 58 197 1.0 5.0 0.00 0.00 0.00 71 1031.7
20260831010015 58 153 1.0 4.0 0.00 0.00 0.00 71 1031.8
20260831005510 58 115 1.0 4.0 0.00 0.00 0.00 72 1031.8
20260831005009 58 157 1.0 3.0 0.00 0.00 0.00 72 1031.8
20260831004511 57 132 0.0 3.0 0.00 0.00 0.00 73 1031.8
20260831004008 57 259 1.0 5.0 0.00 0.00 0.00 73 1031.8
20260831003505 57 158 0.0 5.0 0.00 0.00 0.00 73 1031.9
20260831003004 57 22 1.0 3.0 0.00 0.00 0.00 74 1032.0
20260831002501 57 9 1.0 3.0 0.00 0.00 0.00 74 1032.0
20260831002100 56 83 0.0 2.0 0.00 0.00 0.00 76 1032.0
20260831001559 56 150 0.0 3.0 0.00 0.00 0.00 75 1032.0
20260831001058 56 150 0.0 4.0 0.00 0.00 0.00 75 1032.1
20260831000556 56 135 2.0 4.0 0.00 0.00 0.00 76 1032.1
20260831000055 55 163 0.0 3.0 0.00 0.00 0.00 76 1032.2
20260830235554 55 167 1.0 3.0 0.00 0.00 0.00 77 1032.2
20260830235052 55 168 0.0 3.0 0.00 0.00 0.00 77 1032.2
20260830234604 54 126 0.0 5.0 0.00 0.00 0.00 77 1032.2
20260830234049 54 123 1.0 3.0 0.00 0.00 0.00 77 1032.1
20260830233548 54 134 1.0 3.0 0.00 0.00 0.00 78 1032.2
20260830233047 53 153 1.0 3.0 0.00 0.00 0.00 77 1032.2
20260830232045 53 122 0.0 2.0 0.00 0.00 0.00 78 1032.3
20260830231548 53 122 0.0 3.0 0.00 0.00 0.00 78 1032.2
20260830231044 53 121 0.0 3.0 0.00 0.00 0.00 79 1032.3
20260830230542 52 213 0.0 2.0 0.00 0.00 0.00 79 1032.2
20260830230047 52 133 0.0 2.0 0.00 0.00 0.00 80 1032.3
20260830225539 51 133 0.0 2.0 0.00 0.00 0.00 80 1032.2
20260830225038 51 133 0.0 2.0 0.00 0.00 0.00 81 1032.3
20260830224543 50 11 0.0 1.0 0.00 0.00 0.00 82 1032.3
20260830224044 50 11 0.0 2.0 0.00 0.00 0.00 83 1032.4
20260830223533 50 11 0.0 2.0 0.00 0.00 0.00 83 1032.5
20260830223031 49 11 0.0 2.0 0.00 0.00 0.00 84 1032.5
20260830222032 48 11 0.0 2.0 0.00 0.00 0.00 85 1032.5
20260830221527 48 11 0.0 2.0 0.00 0.00 0.00 86 1032.4
20260830221026 47 5 0.0 2.0 0.00 0.00 0.00 86 1032.4
20260830220524 47 5 0.0 2.0 0.00 0.00 0.00 86 1032.4
20260830220023 47 5 0.0 2.0 0.00 0.00 0.00 86 1032.4
20260830215521 46 360 0.0 3.0 0.00 0.00 0.00 86 1032.5
20260830215019 46 349 1.0 4.0 0.00 0.00 0.00 86 1032.5
20260830214520 46 338 1.0 4.0 0.00 0.00 0.00 86 1032.6
20260830214019 46 309 2.0 4.0 0.00 0.00 0.00 87 1032.6
20260830213519 46 319 1.0 4.0 0.00 0.00 0.00 88 1032.5
20260830213016 46 347 2.0 3.0 0.00 0.00 0.00 88 1032.5
20260830212015 46 346 1.0 4.0 0.00 0.00 0.00 88 1032.4
20260830211513 46 349 1.0 4.0 0.00 0.00 0.00 88 1032.4
20260830211012 46 360 1.0 4.0 0.00 0.00 0.00 88 1032.3
20260830210512 46 355 1.0 4.0 0.00 0.00 0.00 88 1032.2
20260830210010 46 344 1.0 3.0 0.00 0.00 0.00 89 1032.2
20260830205513 46 25 1.0 3.0 0.00 0.00 0.00 89 1032.2
20260830205008 46 333 1.0 4.0 0.00 0.00 0.00 89 1032.3
20260830204508 47 355 1.0 4.0 0.00 0.00 0.00 89 1032.3
20260830204007 47 360 1.0 5.0 0.00 0.00 0.00 89 1032.3
20260830203506 47 360 1.0 4.0 0.00 0.00 0.00 89 1032.2
20260830203018 47 333 1.0 4.0 0.00 0.00 0.00 89 1032.2
20260830202006 47 5 1.0 4.0 0.00 0.00 0.00 90 1032.2
20260830201505 48 20 1.0 5.0 0.00 0.00 0.00 90 1032.2
20260830201005 48 25 2.0 4.0 0.00 0.00 0.00 90 1032.1
20260830200502 48 5 1.0 4.0 0.00 0.00 0.00 90 1032.1
20260830200002 48 349 0.0 2.0 0.00 0.00 0.00 90 1032.1
20260830195501 48 277 0.0 1.0 0.00 0.00 0.00 90 1032.2
20260830195001 48 277 0.0 2.0 0.00 0.00 0.00 90 1032.2
20260830194501 48 277 0.0 2.0 0.00 0.00 0.00 90 1032.1
20260830194001 48 259 0.0 1.0 0.00 0.00 0.00 90 1032.1
20260830193603 49 259 0.0 1.0 0.00 0.00 0.00 90 1032.2
20260830193100 49 259 0.0 0.0 0.00 0.00 0.00 90 1032.2
20260830192055 49 259 0.0 0.0 0.00 0.00 0.00 90 1032.1
20260830191557 49 259 0.0 0.0 0.00 0.00 0.00 90 1032.1
20260830191052 49 259 0.0 0.0 0.00 0.00 0.00 90 1032.1
20260830190551 49 259 0.0 0.0 0.00 0.00 0.00 90 1032.1
20260830190049 49 259 0.0 0.0 0.00 0.00 0.00 90 1032.0
20260830185549 49 259 0.0 1.0 0.00 0.00 0.00 90 1032.1
20260830185046 49 259 0.0 2.0 0.00 0.00 0.00 90 1032.1
20260830184544 49 259 0.0 2.0 0.00 0.00 0.00 90 1032.2
20260830184044 49 223 0.0 2.0 0.00 0.00 0.00 90 1032.2
20260830183542 49 223 0.0 1.0 0.00 0.00 0.00 90 1032.1
20260830183044 49 220 0.0 1.0 0.00 0.00 0.00 90 1032.2
20260830182039 49 219 0.0 2.0 0.00 0.00 0.00 90 1032.2
20260830181538 49 219 0.0 2.0 0.00 0.00 0.00 90 1032.2
20260830181039 49 219 0.0 0.0 0.00 0.00 0.00 90 1032.2
20260830180534 49 219 0.0 0.0 0.00 0.00 0.00 90 1032.3
20260830180035 49 219 0.0 0.0 0.00 0.00 0.00 90 1032.3
20260830175532 49 219 0.0 0.0 0.00 0.00 0.00 90 1032.3
20260830175032 49 219 0.0 0.0 0.00 0.00 0.00 89 1032.4
20260830174536 49 219 0.0 0.0 0.00 0.00 0.00 89 1032.4
20260830174029 49 219 0.0 0.0 0.00 0.00 0.00 89 1032.4
20260830173530 49 219 0.0 0.0 0.00 0.00 0.00 90 1032.4
20260830173042 49 219 0.0 0.0 0.00 0.00 0.00 89 1032.5
20260830172032 49 219 0.0 0.0 0.00 0.00 0.00 89 1032.5
20260830171529 49 219 0.0 0.0 0.00 0.00 0.00 89 1032.6
20260830171029 48 219 0.0 0.0 0.00 0.00 0.00 89 1032.6
20260830170529 49 219 0.0 0.0 0.00 0.00 0.00 89 1032.6
20260830170029 48 219 0.0 0.0 0.00 0.00 0.00 89 1032.6
20260830165528 48 219 0.0 0.0 0.00 0.00 0.00 89 1032.6
20260830165030 48 219 0.0 0.0 0.00 0.00 0.00 89 1032.6
20260830164537 48 219 0.0 0.0 0.00 0.00 0.00 89 1032.6
20260830164027 48 219 0.0 0.0 0.00 0.00 0.00 89 1032.6
20260830163527 48 219 0.0 0.0 0.00 0.00 0.00 89 1032.7
20260830163027 48 219 0.0 0.0 0.00 0.00 0.00 89 1032.7
20260830162026 48 219 0.0 0.0 0.00 0.00 0.00 89 1032.6
20260830161526 48 219 0.0 0.0 0.00 0.00 0.00 89 1032.6
20260830161024 48 219 0.0 0.0 0.00 0.00 0.00 89 1032.6
20260830160524 48 219 0.0 0.0 0.00 0.00 0.00 89 1032.7
20260830160024 48 219 0.0 0.0 0.00 0.00 0.00 89 1032.7
20260830155524 48 219 0.0 0.0 0.00 0.00 0.00 88 1032.7
20260830155024 48 219 0.0 0.0 0.00 0.00 0.00 88 1032.7
20260830154523 48 219 0.0 0.0 0.00 0.00 0.00 88 1032.7
20260830154022 48 219 0.0 0.0 0.00 0.00 0.00 88 1032.7
20260830153521 48 219 0.0 0.0 0.00 0.00 0.00 88 1032.7
20260830153040 48 219 0.0 0.0 0.00 0.00 0.00 88 1032.7
20260830152024 48 219 0.0 0.0 0.00 0.00 0.00 88 1032.7
20260830151524 48 219 0.0 0.0 0.00 0.00 0.00 88 1032.7
20260830151024 48 219 0.0 0.0 0.00 0.00 0.00 88 1032.7
20260830150524 48 219 0.0 0.0 0.00 0.00 0.00 88 1032.8
20260830150023 48 219 0.0 0.0 0.00 0.00 0.00 88 1032.8
20260830145522 48 219 0.0 0.0 0.00 0.00 0.00 88 1032.8
20260830145025 48 219 0.0 0.0 0.00 0.00 0.00 88 1032.8
20260830144522 48 219 0.0 0.0 0.00 0.00 0.00 88 1032.7
20260830144021 48 219 0.0 0.0 0.00 0.00 0.00 88 1032.8
20260830143520 48 219 0.0 0.0 0.00 0.00 0.00 88 1032.7
20260830143021 48 219 0.0 0.0 0.00 0.00 0.00 88 1032.7
20260830142014 48 219 0.0 2.0 0.00 0.00 0.00 88 1032.7
20260830141518 48 219 0.0 2.0 0.00 0.00 0.00 88 1032.7
20260830141012 48 219 0.0 2.0 0.00 0.00 0.00 88 1032.8
20260830140511 48 219 0.0 2.0 0.00 0.00 0.00 87 1032.8
20260830140011 48 219 0.0 0.0 0.00 0.00 0.00 87 1032.8
20260830135511 48 219 0.0 0.0 0.00 0.00 0.00 87 1032.9
20260830135011 48 219 0.0 0.0 0.00 0.00 0.00 87 1033.0
20260830134514 48 219 0.0 0.0 0.00 0.00 0.00 87 1033.0
20260830134011 48 219 0.0 1.0 0.00 0.00 0.00 87 1033.1
20260830133512 48 219 0.0 1.0 0.00 0.00 0.00 87 1033.2
20260830133014 48 216 0.0 1.0 0.00 0.00 0.00 87 1033.3
20260830132510 48 216 0.0 1.0 0.00 0.00 0.00 87 1033.3
20260830132009 48 216 0.0 2.0 0.00 0.00 0.00 86 1033.3
20260830131512 48 171 0.0 1.0 0.00 0.00 0.00 86 1033.3
20260830131010 48 171 0.0 1.0 0.00 0.00 0.00 86 1033.3
20260830130511 47 171 0.0 1.0 0.00 0.00 0.00 86 1033.4
20260830130010 47 171 0.0 2.0 0.00 0.00 0.00 85 1033.4
20260830125014 47 171 0.0 2.0 0.00 0.00 0.00 85 1033.4
20260830124514 47 171 0.0 2.0 0.00 0.00 0.00 84 1033.4
20260830124014 47 188 0.0 1.0 0.00 0.00 0.00 83 1033.4
20260830123514 46 188 0.0 1.0 0.00 0.00 0.00 83 1033.4
20260830123014 46 188 0.0 0.0 0.00 0.00 0.00 82 1033.4
20260830122514 46 188 0.0 0.0 0.00 0.00 0.00 82 1033.4
20260830122015 46 188 0.0 0.0 0.00 0.00 0.00 82 1033.3
20260830121514 46 188 0.0 0.0 0.00 0.00 0.00 82 1033.3
20260830121013 47 188 0.0 0.0 0.00 0.00 0.00 82 1033.3
20260830120513 47 188 0.0 0.0 0.00 0.00 0.00 82 1033.3
20260830120013 47 188 0.0 0.0 0.00 0.00 0.00 82 1033.2
20260830115016 47 188 0.0 0.0 0.00 0.00 0.00 82 1033.2
20260830114519 47 188 0.0 0.0 0.00 0.00 0.00 81 1033.1
20260830114018 48 188 0.0 0.0 0.00 0.00 0.00 82 1033.1
20260830113516 48 188 0.0 0.0 0.00 0.00 0.00 82 1033.1
20260830113015 48 188 0.0 0.0 0.00 0.00 0.00 82 1033.1
20260830112514 48 188 0.0 0.0 0.00 0.00 0.00 82 1033.2
20260830112014 48 188 0.0 0.0 0.00 0.00 0.00 81 1033.2
20260830111519 49 188 0.0 0.0 0.00 0.00 0.00 81 1033.2
20260830111015 49 188 0.0 0.0 0.00 0.00 0.00 80 1033.2
20260830110514 49 188 0.0 0.0 0.00 0.00 0.00 80 1033.1
20260830110014 49 188 0.0 0.0 0.00 0.00 0.00 80 1033.1
20260830105009 50 188 0.0 0.0 0.00 0.00 0.00 80 1033.1
20260830104509 50 188 0.0 0.0 0.00 0.00 0.00 80 1033.0
20260830104009 50 188 0.0 0.0 0.00 0.00 0.00 79 1033.0
20260830103509 50 188 0.0 0.0 0.00 0.00 0.00 79 1033.0
20260830103012 50 188 0.0 0.0 0.00 0.00 0.00 79 1032.8
20260830102508 51 188 0.0 0.0 0.00 0.00 0.00 79 1032.8
20260830102008 51 188 0.0 0.0 0.00 0.00 0.00 79 1032.9
20260830101508 51 188 0.0 0.0 0.00 0.00 0.00 78 1032.8
20260830101012 51 188 0.0 0.0 0.00 0.00 0.00 78 1032.7
20260830100508 51 188 0.0 0.0 0.00 0.00 0.00 77 1032.7
20260830100012 52 188 0.0 0.0 0.00 0.00 0.00 77 1032.7
20260830095008 52 188 0.0 0.0 0.00 0.00 0.00 76 1032.7
20260830094507 52 188 0.0 0.0 0.00 0.00 0.00 76 1032.6
20260830094007 53 188 0.0 1.0 0.00 0.00 0.00 76 1032.6
20260830093509 53 188 0.0 1.0 0.00 0.00 0.00 76 1032.6
20260830093007 53 188 0.0 1.0 0.00 0.00 0.00 76 1032.7
20260830092506 53 188 0.0 1.0 0.00 0.00 0.00 76 1032.7
20260830092008 54 188 0.0 2.0 0.00 0.00 0.00 76 1032.7
20260830091520 54 188 0.0 2.0 0.00 0.00 0.00 76 1032.6
20260830091007 54 188 0.0 2.0 0.00 0.00 0.00 75 1032.6
20260830090506 55 188 0.0 4.0 0.00 0.00 0.00 75 1032.6
20260830090010 55 188 0.0 2.0 0.00 0.00 0.00 75 1032.6
20260830085008 56 188 1.0 3.0 0.00 0.00 0.00 74 1032.6
20260830084508 56 186 0.0 3.0 0.00 0.00 0.00 74 1032.4
20260830084009 56 173 1.0 4.0 0.00 0.00 0.00 74 1032.4
20260830083508 57 174 1.0 4.0 0.00 0.00 0.00 74 1032.2
20260830083012 57 163 2.0 4.0 0.00 0.00 0.00 73 1032.2
20260830082507 58 156 1.0 4.0 0.00 0.00 0.00 73 1032.1
20260830082007 58 167 2.0 5.0 0.00 0.00 0.00 72 1032.1
20260830081514 59 161 1.0 4.0 0.00 0.00 0.00 72 1031.9
20260830081007 60 146 1.0 5.0 0.00 0.00 0.00 72 1031.9
20260830080507 60 196 1.0 5.0 0.00 0.00 0.00 71 1031.8
20260830080007 60 205 0.0 5.0 0.00 0.00 0.00 71 1031.8
20260830075006 61 198 0.0 5.0 0.00 0.00 0.00 70 1031.7
20260830074517 61 195 1.0 5.0 0.00 0.00 0.00 70 1031.6
20260830074008 62 183 0.0 3.0 0.00 0.00 0.00 70 1031.6
20260830073506 62 173 1.0 5.0 0.00 0.00 0.00 70 1031.6
20260830073005 62 161 1.0 8.0 0.00 0.00 0.00 69 1031.5
20260830072509 62 155 2.0 8.0 0.00 0.00 0.00 69 1031.6
20260830072005 63 158 2.0 5.0 0.00 0.00 0.00 68 1031.6
20260830071505 63 160 1.0 5.0 0.00 0.00 0.00 68 1031.5
20260830071005 63 157 1.0 6.0 0.00 0.00 0.00 67 1031.4
20260830070504 63 93 2.0 7.0 0.00 0.00 0.00 67 1031.5
20260830070005 64 149 3.0 9.0 0.00 0.00 0.00 66 1031.5
20260830065005 64 135 3.0 8.0 0.00 0.00 0.00 66 1031.5
20260830064505 64 122 3.0 7.0 0.00 0.00 0.00 66 1031.5
20260830064004 65 140 1.0 7.0 0.00 0.00 0.00 65 1031.5
20260830063508 65 202 2.0 7.0 0.00 0.00 0.00 65 1031.4
20260830063006 65 123 2.0 7.0 0.00 0.00 0.00 64 1031.4
20260830062504 65 169 4.0 7.0 0.00 0.00 0.00 64 1031.3
20260830062004 65 156 3.0 9.0 0.00 0.00 0.00 64 1031.4
20260830061504 65 149 3.0 9.0 0.00 0.00 0.00 64 1031.4
20260830061007 66 194 2.0 5.0 0.00 0.00 0.00 64 1031.4
20260830060503 65 146 2.0 6.0 0.00 0.00 0.00 64 1031.4
20260830060005 66 208 3.0 7.0 0.00 0.00 0.00 63 1031.4
20260830055009 66 200 2.0 5.0 0.00 0.00 0.00 63 1031.5
20260830054509 66 147 2.0 7.0 0.00 0.00 0.00 63 1031.5
20260830054009 66 162 2.0 6.0 0.00 0.00 0.00 64 1031.5
20260830053512 66 130 2.0 7.0 0.00 0.00 0.00 63 1031.5
20260830053008 66 98 2.0 6.0 0.00 0.00 0.00 64 1031.5
20260830052510 66 138 2.0 7.0 0.00 0.00 0.00 64 1031.5
20260830052009 66 140 3.0 7.0 0.00 0.00 0.00 63 1031.5
20260830051509 66 120 2.0 6.0 0.00 0.00 0.00 64 1031.5
20260830051009 66 109 2.0 6.0 0.00 0.00 0.00 64 1031.5
20260830050508 66 117 2.0 6.0 0.00 0.00 0.00 64 1031.5
20260830050007 66 221 2.0 6.0 0.00 0.00 0.00 63 1031.5
20260830045001 66 151 2.0 6.0 0.00 0.00 0.00 63 1031.5
20260830044614 66 150 2.0 6.0 0.00 0.00 0.00 63 1031.5
20260830044100 66 148 2.0 5.0 0.00 0.00 0.00 63 1031.6
20260830044001 66 169 2.0 8.0 0.00 0.00 0.00 63 1031.6
20260830043601 66 183 2.0 8.0 0.00 0.00 0.00 63 1031.6
20260830043059 65 200 1.0 5.0 0.00 0.00 0.00 63 1031.6
20260830042558 65 248 2.0 5.0 0.00 0.00 0.00 64 1031.6